[[{"header":{"parameterUnit":"m.s-1","parameterCategory":1,"la1":30.2992,"la2":30.254,"lo1":-89.0895,"lo2":-89.0443,"dy":0.0025,"dx":0.0025,"nx":19,"ny":19,"refTime":"2026-03-21T03:00:00:Z","depth":0,"parameterNumber":2,"parameterNumberName":"U-component_of_WINDS"},"data":[0,0,0,2.2213,2.2213,2.2185,2.2185,2.2185,2.2186,0,0,0,0,0,0,0,0,0,0,0,2.2239,2.2239,2.2213,2.2213,2.2185,2.2185,2.2185,2.2186,0,0,0,0,0,0,0,0,0,0,0,2.2238,2.2239,2.224,2.2213,2.2185,2.2185,2.2185,2.2194,0,0,0,0,0,0,0,0,0,0,2.2215,2.2255,2.2239,2.224,2.2213,2.2186,2.2185,2.2194,2.2194,2.2212,0,2.2229,0,2.2208,2.2188,2.2188,0,0,0,2.22,2.2255,2.2232,2.224,2.2213,2.2186,2.2194,2.2194,2.2193,2.2212,2.2229,2.2228,2.2208,2.2188,2.2188,2.2329,2.233,0,0,2.2202,2.2244,2.2232,2.2233,2.2235,2.2195,2.2194,2.2193,2.2216,2.2229,2.2228,2.2208,2.2188,2.2188,2.2327,2.2329,0,0,0,2.2215,2.2246,2.2221,2.2233,2.2226,2.2195,2.2193,2.2216,2.2204,2.2227,2.2208,2.2188,2.2189,2.2326,2.2328,2.2431,0,0,0,2.2215,2.2253,2.2223,2.2248,2.2226,2.222,2.2217,2.2205,2.2203,2.2208,2.2188,2.2189,2.2324,2.2327,2.2425,2.2473,0,0,0,2.2235,2.2255,2.2256,2.225,2.224,2.2219,2.2207,2.2203,2.2192,2.2188,2.2189,2.2323,2.2327,2.2419,2.2464,2.2524,0,0,0,2.2268,2.2347,2.2259,2.234,2.224,2.2281,2.2206,2.2235,2.2243,2.2188,2.2325,2.2328,2.2418,2.2459,2.2519,2.2584,2.2614,0,0,2.2392,2.2364,2.2408,2.2328,2.2396,2.2282,2.2365,2.2334,2.2297,2.2321,2.2324,2.2427,2.2463,2.2523,2.2765,2.279,0,0,0,2.2462,2.2495,2.2504,2.2513,2.2491,2.2477,2.2429,2.2418,2.2437,2.2316,2.2462,2.2483,2.2516,2.2546,2.2566,2.2594,2.2342,2.2342,2.2342,2.2698,2.2645,2.2717,2.2662,2.2673,2.2623,2.2629,2.2606,2.2549,2.2585,2.2593,2.2745,2.2781,2.2796,2.2826,2.2621,2.2621,2.2621,2.2622,2.2876,2.2916,2.284,2.2882,2.2828,2.2864,2.2822,2.2781,2.281,2.2734,2.2761,2.2686,2.2825,2.2848,2.2629,2.2628,2.2627,2.2626,2.2625,2.3026,2.3036,2.3021,2.3032,2.3048,2.299,2.3022,2.297,2.2923,2.2949,2.2954,2.2952,2.2947,2.2955,2.2955,2.2956,2.2956,2.2957,2.2957,2.3189,2.3168,2.32,2.3185,2.3187,2.3183,2.3137,2.3138,2.3127,2.3088,2.3087,2.3031,2.2847,2.2803,2.2965,2.2964,2.2962,2.2962,2.2961,2.3393,2.3339,2.3388,2.339,2.3371,2.3392,2.3326,2.3335,2.3328,2.3347,2.3284,2.3155,2.3124,2.3107,2.3071,2.3292,2.3292,2.3292,2.3292,2.3521,2.35,2.354,2.3547,2.3548,2.3495,2.3558,2.3525,2.3483,2.3477,2.3437,2.3384,2.3369,2.3347,2.3325,2.329,2.3563,2.3563,2.3563,2.3646,2.3623,2.3683,2.3639,2.3622,2.361,2.3668,2.3683,2.3624,2.3573,2.3472,2.3461,2.3375,2.3349,2.3297,2.3264,2.3199,0,0]},{"header":{"parameterUnit":"m.s-1","parameterCategory":1,"la1":30.2992,"la2":30.254,"lo1":-89.0895,"lo2":-89.0443,"dy":0.0025,"dx":0.0025,"nx":19,"ny":19,"refTime":"2026-03-21T03:00:00:Z","depth":0,"parameterNumber":3,"parameterNumberName":"V-component_of_WINDS"},"data":[0,0,0,4.3673,4.3678,4.3944,4.3945,4.4264,4.4267,0,0,0,0,0,0,0,0,0,0,0,4.3582,4.3584,4.3672,4.3678,4.3943,4.3945,4.4264,4.4267,0,0,0,0,0,0,0,0,0,0,0,4.3582,4.3584,4.3586,4.3679,4.3943,4.3945,4.4263,4.407,0,0,0,0,0,0,0,0,0,0,4.3815,4.3721,4.3583,4.3586,4.3681,4.3943,4.3945,4.4061,4.4082,4.4136,0,4.4182,0,4.423,4.4287,4.4288,0,0,0,4.3686,4.3703,4.3786,4.3586,4.3683,4.3942,4.3826,4.4073,4.4097,4.4164,4.4186,4.4199,4.4235,4.4289,4.4291,4.4581,4.4582,0,0,4.3672,4.3624,4.3769,4.3801,4.3759,4.3818,4.3834,4.4087,4.4108,4.4188,4.4207,4.424,4.4291,4.4293,4.458,4.4581,0,0,0,4.3624,4.3613,4.369,4.3787,4.3836,4.3825,4.3844,4.4097,4.4126,4.421,4.4244,4.4293,4.4297,4.4579,4.458,4.4584,0,0,0,4.3616,4.3585,4.3683,4.3656,4.3831,4.397,4.3848,4.4109,4.4139,4.4242,4.4293,4.43,4.4578,4.458,4.4581,4.4593,0,0,0,4.3569,4.358,4.3615,4.3652,4.3765,4.3967,4.4011,4.4116,4.4159,4.4289,4.43,4.4577,4.4579,4.4579,4.4589,4.4657,0,0,0,4.3504,4.3611,4.3614,4.3747,4.3763,4.3968,4.401,4.4165,4.4276,4.4295,4.4578,4.458,4.4579,4.4588,4.4654,4.4705,4.4722,0,0,4.3612,4.3622,4.3704,4.3715,4.3907,4.3931,4.4125,4.4271,4.4326,4.4492,4.45,4.4582,4.4589,4.4656,4.4831,4.4843,0,0,0,4.3722,4.3781,4.3842,4.3948,4.4064,4.4165,4.4287,4.4343,4.4487,4.4402,4.4626,4.4632,4.4673,4.4699,4.471,4.475,4.459,4.459,4.459,4.3803,4.3872,4.4013,4.4114,4.4216,4.4344,4.4432,4.4528,4.4564,4.4616,4.4666,4.4764,4.4793,4.4801,4.4841,4.4698,4.4698,4.4698,4.4698,4.3968,4.4062,4.4113,4.4267,4.4339,4.447,4.4598,4.462,4.4752,4.473,4.477,4.4741,4.4813,4.4852,4.4699,4.4699,4.4699,4.4699,4.4698,4.4029,4.4086,4.4154,4.4316,4.4434,4.4532,4.4659,4.4719,4.4776,4.4815,4.4876,4.4876,4.4884,4.484,4.484,4.4841,4.4841,4.4841,4.4841,4.4065,4.4141,4.4241,4.4377,4.4455,4.4565,4.4698,4.4776,4.4877,4.4911,4.4912,4.4944,4.4808,4.4773,4.4847,4.4846,4.4845,4.4845,4.4844,4.4206,4.4185,4.4339,4.4417,4.4584,4.4699,4.4776,4.493,4.5004,4.5064,4.509,4.4979,4.4993,4.4985,4.4956,4.5074,4.5074,4.5074,4.5074,4.4257,4.4272,4.4445,4.4567,4.4694,4.478,4.4954,4.5059,4.5164,4.5214,4.5206,4.5174,4.5162,4.5183,4.5171,4.5145,4.5308,4.5308,4.5308,4.4349,4.4379,4.4514,4.462,4.4756,4.4872,4.5038,4.5176,4.5291,4.5319,4.5255,4.5245,4.5193,4.5173,4.5197,4.5176,4.513,0,0]}]]